Lansing, MI

11:13 PM EDT on September 19, 2017 (GMT -0400)
Capital City

Weather History for KLAN - April, 2013

Change the Weather History Date:

Thursday, April 18, 2013

  Actual Average Record
Temperature  
Mean Temperature 59 °F 48 °F  
Max Temperature 72 °F 59 °F 86 °F (2002)
Min Temperature 45 °F 38 °F 8 °F (1875)
Degree Days  
Heating Degree Days 6 17  
Month to date heating degree days 420 360  
Since 1 July heating degree days 6146 6224  
Cooling Degree Days 0 0  
Month to date cooling degree days 0 0  
Year to date cooling degree days 0 1  
Growing Degree Days 8 (Base 50)    
Moisture  
Dew Point 51 °F    
Average Humidity 81    
Maximum Humidity 93    
Minimum Humidity 68    
Precipitation  
Precipitation 0.97 in 0.10 in 2.53 in (1975)
Month to date precipitation 6.19 1.84  
Year to date precipitation 12.37 7.02  
Snow  
Snow 0.00 in 0.10 in 1.00 in (1875)
Month to date snowfall T 1.6  
Since 1 July snowfall 29.7 50.8  
Snow Depth 0.00 in    
Sea Level Pressure  
Sea Level Pressure 29.70 in    
Wind  
Wind Speed 14 mph (SSE)    
Max Wind Speed 26 mph    
Max Gust Speed 36 mph    
Visibility 6 miles    
Events Rain    
T = Trace of Precipitation, MM = Missing Value Source: NWS Daily Summary

Daily Weather History Graph

Daily Weather History Graph

Search for Another Location

Airport or City:

Trip Planner

Search our weather history database for the weather conditions in past years. The results will help you decide how hot, cold, wet, or windy it might be!

Date:

Astronomy

Apr. 18, 2013 Rise Set
Actual Time 6:51 AM EDT 8:24 PM EDT
Civil Twilight 6:21 AM EDT 8:54 PM EDT
Nautical Twilight 5:46 AM EDT 9:30 PM EDT
Astronomical Twilight 5:07 AM EDT 10:08 PM EDT
Moon 1:01 PM EDT (4/18) 2:40 AM EDT (4/18)
Length of Visible Light 14h 32m
Length of Day
13h 32m
First Quarter, 51% of the Moon is Illuminated
Apr 18
First Quarter
Apr 25
Full
May 2
Last Quarter
May 9
New
May 18
First Quarter

Hourly Weather History & Observations

Time (EDT) Temp. Windchill Dew Point Humidity Pressure Visibility Wind Dir Wind Speed Gust Speed Precip Events Conditions
12:31 AM 44.6 °F 39.7 °F 41.0 °F 87% 29.99 in 10.0 mi SE 9.2 mph 18.4 mph 0.00 in Rain Light Rain
12:53 AM 45.0 °F 41.8 °F 42.1 °F 90% 29.98 in 5.0 mi East 5.8 mph - 0.02 in Rain Rain
1:26 AM 44.6 °F 39.7 °F 42.8 °F 93% 29.93 in 7.0 mi ESE 9.2 mph - 0.01 in Rain Light Rain
1:53 AM 45.0 °F 39.3 °F 43.0 °F 93% 29.94 in 2.5 mi SSE 11.5 mph - 0.06 in Rain Heavy Rain
2:06 AM 46.4 °F 41.1 °F 42.8 °F 87% 29.91 in 3.0 mi SE 11.5 mph - 0.07 in Rain Rain
2:35 AM 46.4 °F 42.9 °F 44.6 °F 93% 29.91 in 3.0 mi Variable 6.9 mph 17.3 mph 0.16 in Rain Rain
2:39 AM 46.4 °F 42.9 °F 44.6 °F 93% 29.91 in 1.8 mi SW 6.9 mph 17.3 mph 0.18 in Rain Heavy Rain
2:53 AM 46.9 °F - 44.1 °F 90% 29.88 in 2.5 mi ESE 17.3 mph - 0.51 in Rain Light Rain
2:59 AM 46.4 °F 40.4 °F 44.6 °F 93% 29.86 in 9.0 mi ESE 13.8 mph - 0.00 in   Overcast
3:53 AM 46.9 °F - 44.1 °F 90% 29.85 in 10.0 mi East 5.8 mph - 0.00 in   Overcast
4:53 AM 46.9 °F - 44.1 °F 90% 29.81 in 8.0 mi East 8.1 mph - N/A   Overcast
5:41 AM 46.4 °F 40.4 °F 44.6 °F 93% 29.85 in 6.0 mi NW 13.8 mph - 0.00 in   Overcast
5:53 AM 46.0 °F 41.4 °F 43.0 °F 89% 29.81 in 6.0 mi NNE 9.2 mph - 0.00 in   Overcast
6:44 AM 44.6 °F 40.2 °F 42.8 °F 93% 29.77 in 6.0 mi East 8.1 mph - N/A   Overcast
6:53 AM 45.0 °F 39.7 °F 43.0 °F 93% 29.77 in 2.5 mi East 10.4 mph - N/A   Overcast
7:53 AM 46.0 °F 41.4 °F 44.1 °F 93% 29.73 in 2.5 mi ESE 9.2 mph - N/A   Overcast
8:00 AM 46.4 °F 41.9 °F 44.6 °F 93% 29.70 in 4.0 mi ESE 9.2 mph - N/A   Mostly Cloudy
8:07 AM 48.2 °F - 44.6 °F 87% 29.71 in 2.0 mi ESE 8.1 mph - N/A   Mostly Cloudy
8:24 AM 50.0 °F - 46.4 °F 87% 29.69 in 3.0 mi SE 9.2 mph - N/A   Mostly Cloudy
8:38 AM 51.8 °F - 48.2 °F 88% 29.70 in 3.0 mi SE 8.1 mph - N/A   Mostly Cloudy
8:53 AM 51.1 °F - 48.0 °F 89% 29.73 in 4.0 mi NW 13.8 mph - N/A   Mostly Cloudy
9:00 AM 48.2 °F - 46.4 °F 93% 29.71 in 3.0 mi NNW 6.9 mph 16.1 mph N/A   Overcast
9:13 AM 48.2 °F - 46.4 °F 93% 29.70 in 2.0 mi NW 6.9 mph - N/A   Overcast
9:30 AM 48.2 °F - 46.4 °F 93% 29.68 in 2.0 mi North 4.6 mph - N/A   Overcast
9:51 AM 50.0 °F - 48.2 °F 94% 29.66 in 2.0 mi NNE 4.6 mph - N/A   Overcast
9:53 AM 50.0 °F - 48.0 °F 93% 29.67 in 2.0 mi NNE 3.5 mph - N/A   Overcast
9:56 AM 50.0 °F - 48.2 °F 94% 29.66 in 3.0 mi NE 4.6 mph - N/A   Overcast
10:03 AM 50.0 °F - 48.2 °F 94% 29.66 in 4.0 mi ENE 3.5 mph - N/A   Overcast
10:53 AM 57.0 °F - 54.0 °F 89% 29.63 in 6.0 mi SSE 8.1 mph - N/A   Mostly Cloudy
11:09 AM 62.6 °F - 57.2 °F 82% 29.61 in 7.0 mi SSE 10.4 mph - N/A   Mostly Cloudy
11:49 AM 69.8 °F - 62.6 °F 78% 29.57 in 10.0 mi South 19.6 mph 26.5 mph N/A   Mostly Cloudy
11:53 AM 71.1 °F - 61.0 °F 70% 29.57 in 10.0 mi South 21.9 mph 28.8 mph N/A   Mostly Cloudy
12:13 PM 71.6 °F - 60.8 °F 69% 29.56 in 10.0 mi South 23.0 mph 32.2 mph 0.01 in   Mostly Cloudy
12:53 PM 71.1 °F - 62.1 °F 73% 29.55 in 10.0 mi South 21.9 mph 31.1 mph 0.02 in Rain Light Rain
1:53 PM 71.1 °F - 60.1 °F 68% 29.55 in 10.0 mi SW 27.6 mph 33.4 mph 0.01 in   Scattered Clouds
2:53 PM 68.0 °F - 61.0 °F 78% 29.57 in 10.0 mi SW 13.8 mph 25.3 mph 0.00 in Rain Light Rain
3:53 PM 64.0 °F - 59.0 °F 84% 29.61 in 6.0 mi WSW 16.1 mph 24.2 mph 0.03 in Rain Light Rain
4:11 PM 64.4 °F - 59.0 °F 83% 29.61 in 9.0 mi WSW 13.8 mph - 0.00 in Rain Light Rain
4:44 PM 62.6 °F - 59.0 °F 88% 29.62 in 10.0 mi SW 17.3 mph 25.3 mph 0.03 in Rain Light Rain
4:53 PM 63.0 °F - 59.0 °F 87% 29.62 in 10.0 mi SSW 12.7 mph 21.9 mph 0.03 in Rain Light Rain
5:43 PM 62.6 °F - 57.2 °F 82% 29.61 in 10.0 mi SSW 12.7 mph - 0.01 in   Overcast
5:53 PM 63.0 °F - 59.0 °F 87% 29.60 in 10.0 mi South 15.0 mph - 0.01 in Rain Light Rain
6:53 PM 63.0 °F - 57.0 °F 81% 29.60 in 10.0 mi SSW 17.3 mph 27.6 mph 0.00 in   Overcast
7:35 PM 62.6 °F - 57.2 °F 82% 29.59 in 10.0 mi SSW 16.1 mph - 0.00 in Rain Light Rain
7:53 PM 61.0 °F - 57.0 °F 87% 29.60 in 10.0 mi SSW 18.4 mph 26.5 mph 0.00 in Rain Light Rain
8:53 PM 60.1 °F - 57.0 °F 90% 29.60 in 9.0 mi South 15.0 mph - 0.05 in Rain Light Rain
9:53 PM 59.0 °F - 55.9 °F 90% 29.51 in 10.0 mi SE 21.9 mph 25.3 mph 0.03 in Rain Light Rain
10:53 PM 59.0 °F - 55.9 °F 90% 29.57 in 8.0 mi South 12.7 mph - 0.06 in Rain Light Rain
11:53 PM 59.0 °F - 55.9 °F 90% 29.53 in 6.0 mi SSE 11.5 mph 21.9 mph 0.09 in Rain Light Rain